Weather in Stenenki

Russia / Kaluga Oblast     54°49′30″N   34°58′18″E
temp.,
°C
wind,
m/s
gust,
m/s
humid.,
%
clouds,
%
prec.,
mm/h
press.,
hPa
HPBL,
m
12 may, wed
wed1200:00+11se289728 0.0 1024232
03:00+8se26976 0.0 1025160
06:00+7sse25920 0.0 1026136
09:00+13ese245679 0.0 1026690
12:00+12ene3561100 0.0 1024387
15:00+13se1263100 0.2 1021429
18:00+12nne2890100 0.6 1016337
21:00+12e61296100 3.8 1013941
13 may, thu
thu1300:00+8se4119514 0.1 1017592
03:00+5e399822 0.1 1018248
06:00+6e41396100 0.0 1017421
09:00+11ese5108591 0.1 1016812
12:00+10ese41094100 1.2 1015685
15:00+13se5983100 2.2 10141051
18:00+12sse47822 1.7 1013843
21:00+9se239496 2.0 101456
14 may, fri
fri1400:00+7sse259667 0.0 1015107
03:00+6se259783 0.0 1015106
06:00+7se2897100 0.0 1015191
09:00+13se4782100 0.0 1014441
12:00+18se4759100 0.0 1013985
15:00+20se586810 0.7 10111274
18:00+18se3785100 1.9 1009430
21:00+15se2695100 3.3 1009120
15 may, sat
sat1500:00+13se299789 0.0 1008203
03:00+12se279816 0.0 1008143
06:00+12se289823 0.0 1008197
09:00+17s51080100 0.1 1007741
12:00+19ssw58607 0.0 10091344
15:00+20ssw5851100 0.0 10081978
18:00+19ssw49650 0.2 10081461
21:00+13s27890 0.2 1009135
16 may, sun
sun1600:00+11s28972 0.0 1010198
03:00+9s289812 0.0 1011185
06:00+10ssw399662 0.1 1011344
09:00+15sw477488 0.1 1012854
12:00+17wsw3564100 0.1 10131356
15:00+19wsw345986 0.1 10131248
18:00+20s135295 0.0 10131406
21:00+14se2278100 0.0 101417